Location: Colorado Springs
(38.8340°N, 104.8210°W)
Time: 01:18:15
(UTC-07:00)

N. Korean satellite - Pass Details

Date: 12 October 2017
Orbit: 461 x 513 km, 97.2° (Epoch: 16 December)

Event Time Altitude Azimuth Distance (km) Brightness Sun altitude
Rises 19:45:37 0° 195° (SSW) 2,557 10.4 -16.5°
Reaches altitude 10° 19:48:00 10° 210° (SSW) 1,671 9.6 -17.0°
Maximum altitude 19:50:54 23° 264° (W) 1,071 9.2 -17.6°
Drops below altitude 10° 19:53:47 10° 319° (NW) 1,657 9.9 -18.1°
Sets 19:56:09 0° 334° (NNW) 2,531 10.6 -18.6°
